Change the Weather History Date:

Tuesday, March 12, 2013

  Actual Average Record
Temperature  
Mean Temperature 48 °F -  
Max Temperature 63 °F 64 °F 82 °F (2006)
Min Temperature 32 °F 44 °F 22 °F (1998)
Degree Days  
Heating Degree Days 18    
Moisture  
Dew Point 32 °F    
Average Humidity 65    
Maximum Humidity 92    
Minimum Humidity 29    
Precipitation  
Precipitation 0.00 in - - ()
Sea Level Pressure  
Sea Level Pressure 30.16 in    
Wind  
Wind Speed 4 mph (NNW)    
Max Wind Speed 12 mph    
Max Gust Speed -    
Visibility 10 miles    
Events      
Averages and records for this station are not official NWS values.
T = Trace of Precipitation, MM = Missing Value Source: NWS Daily Summary

Daily Weather History Graph

Daily Weather History Graph

Search for Another Location

Airport or City:

Trip Planner

Search our weather history database for the weather conditions in past years. The results will help you decide how hot, cold, wet, or windy it might be!

Date:

Astronomy

Mar. 12, 2013 Rise Set
Actual Time 7:07 AM CDT 7:00 PM CDT
Civil Twilight 6:43 AM CDT 7:24 PM CDT
Nautical Twilight 6:14 AM CDT 7:53 PM CDT
Astronomical Twilight 5:46 AM CDT 8:21 PM CDT
Moon 7:19 AM CDT (3/12) 8:08 PM CDT (3/12)
Length of Visible Light 12h 41m
Length of Day
11h 52m
New Moon, 1% of the Moon is Illuminated
Mar 12
New Moon
Mar 19
First Quarter
Mar 27
Full
Apr 2
Last Quarter
Apr 10
New

Hourly Weather History & Observations

Time (CDT) Temp. Windchill Dew Point Humidity Pressure Visibility Wind Dir Wind Speed Gust Speed Precip Events Conditions
12:56 AM 39.0 °F 35.7 °F 34.0 °F 82% 30.07 in 10.0 mi NW 4.6 mph - N/A   Clear
1:56 AM 37.0 °F - 33.1 °F 86% 30.08 in 10.0 mi Calm Calm - N/A   Clear
2:56 AM 36.0 °F 32.1 °F 33.1 °F 89% 30.08 in 10.0 mi NW 4.6 mph - N/A   Clear
3:56 AM 35.1 °F 31.0 °F 32.0 °F 89% 30.09 in 10.0 mi NW 4.6 mph - N/A   Clear
4:56 AM 34.0 °F - 30.9 °F 89% 30.08 in 10.0 mi Calm Calm - N/A   Clear
5:56 AM 32.0 °F 28.7 °F 30.0 °F 92% 30.11 in 8.0 mi NNW 3.5 mph - N/A   Clear
6:56 AM 32.0 °F - 30.0 °F 92% 30.13 in 10.0 mi Calm Calm - N/A   Partly Cloudy
7:56 AM 34.0 °F - 30.9 °F 89% 30.16 in 9.0 mi Calm Calm - N/A   Partly Cloudy
8:56 AM 39.0 °F 34.8 °F 34.0 °F 82% 30.18 in 10.0 mi NNW 5.8 mph - N/A   Clear
9:56 AM 46.0 °F 41.4 °F 34.0 °F 63% 30.20 in 10.0 mi North 9.2 mph - N/A   Clear
10:56 AM 50.0 °F - 32.0 °F 50% 30.20 in 10.0 mi NNW 11.5 mph - N/A   Clear
11:56 AM 54.0 °F - 32.0 °F 43% 30.20 in 10.0 mi NNW 9.2 mph - N/A   Clear
12:56 PM 55.9 °F - 30.0 °F 37% 30.20 in 10.0 mi NW 8.1 mph - N/A   Clear
1:56 PM 57.9 °F - 28.9 °F 33% 30.18 in 10.0 mi Variable 5.8 mph - N/A   Clear
2:56 PM 61.0 °F - 28.9 °F 30% 30.16 in 10.0 mi WNW 10.4 mph - N/A   Clear
3:56 PM 62.1 °F - 28.9 °F 29% 30.15 in 10.0 mi NNW 6.9 mph - N/A   Clear
4:56 PM 63.0 °F - 30.0 °F 29% 30.14 in 10.0 mi North 9.2 mph - N/A   Clear
5:56 PM 62.1 °F - 28.9 °F 29% 30.16 in 10.0 mi North 5.8 mph - N/A   Clear
6:56 PM 57.0 °F - 30.9 °F 37% 30.18 in 10.0 mi NNE 3.5 mph - N/A   Clear
7:56 PM 48.9 °F - 35.1 °F 59% 30.19 in 10.0 mi Calm Calm - N/A   Clear
8:56 PM 46.0 °F - 36.0 °F 68% 30.22 in 10.0 mi Calm Calm - N/A   Clear
9:56 PM 45.0 °F - 37.9 °F 76% 30.23 in 10.0 mi Calm Calm - N/A   Clear
10:56 PM 41.0 °F 38.0 °F 37.0 °F 86% 30.26 in 10.0 mi West 4.6 mph - N/A   Clear
11:56 PM 39.0 °F - 36.0 °F 89% 30.26 in 10.0 mi Calm Calm - N/A   Clear